Regional Weather Roundup
Issued by NWS Sioux Falls, SD

Home | Current Version | Previous Version | Graphics & Text | Print | Product List | Glossary On
Versions: 1 2 3 4 5 6 7 8 9 10 11 12 13 14 15 16 17 18 19 20 21 22 23 24 25 26 27 28 29 30 31 32 33 34 35 36 37 38 39 40 41 42 43 44 45 46 47 48 49 50
000
ASUS43 KFSD 181810
RWRFSD

WEATHER ROUNDUP FOR SE SOUTH DAKOTA/SW MINNESOTA/NW IOWA
NATIONAL WEATHER SERVICE SIOUX FALLS SD
100 PM CDT FRI AUG 18 2017

NOTE: "FAIR" INDICATES FEW OR NO CLOUDS BELOW 12,000 FEET WITH NO
SIGNIFICANT WEATHER AND OR OBSTRUCTIONS TO VISIBILITY.


SDZ038>040-050-052>070-181900-
SOUTHEAST SOUTH DAKOTA

CITY           SKY/WX    TMP DP  RH WIND       PRES   REMARKS
BROOKINGS      SUNNY     75  60  59 S12       29.91F
CHAMBERLAIN    SUNNY     81  61  51 NW14      29.95S
6HR MIN TEMP:  59; 6HR MAX TEMP:  81;

HURON          SUNNY     77  65  66 W8        29.90F
6HR MIN TEMP:  60; 6HR MAX TEMP:  77;

MADISON        FAIR      73  64  73 SW10      29.92F
MITCHELL       CLOUDY    76  64  66 W8        29.92R
6HR MIN TEMP:  57; 6HR MAX TEMP:  77;

SIOUX FALLS    MOSUNNY   77  64  64 S9        29.92F
6HR MIN TEMP:  60; 6HR MAX TEMP:  77;

WINNER         FAIR      81  60  48 N9        29.97S
YANKTON        CLOUDY    77  63  61 S8        29.92F
$$

MNZ071-072-080-081-089-090-097-098-181900-
SOUTHWEST MINNESOTA

CITY           SKY/WX    TMP DP  RH WIND       PRES   REMARKS
FAIRMONT       MOSUNNY   71  61  70 VRB3      29.95S
JACKSON        SUNNY     70  59  68 CALM      29.95S
LUVERNE        SUNNY     73  55  53 S6        29.93F
MARSHALL       SUNNY     77  58  51 S8        29.90F
6HR MIN TEMP:  61; 6HR MAX TEMP:  77;

MONTEVIDEO     CLOUDY    72  68  88 CALM      29.92R
PIPESTONE      SUNNY     75  61  60 SW8       29.93F
REDWOOD FALLS  CLOUDY    70  63  78 S6        29.92F
TRACY          MOSUNNY   75  64  69 CALM      29.92F
WINDOM         SUNNY     73  61  64 CALM      29.94S
WORTHINGTON    SUNNY     74  60  61 CALM      29.94F
$$

IAZ001>003-012>014-020>022-031-032-NEZ013-014-SDZ071-181900-
NORTHWEST IOWA

CITY           SKY/WX    TMP DP  RH WIND       PRES   REMARKS
CHEROKEE       SUNNY     77  61  58 E6        29.93F
DENISON        SUNNY     77  66  69 N3        29.94F
ESTHERVILLE    SUNNY     71  62  73 SE3       29.93F
LE MARS        SUNNY     79  63  57 VRB3      29.93S
ORANGE CITY    SUNNY     77  63  61 S7        29.93F
SHELDON        SUNNY     75  59  57 VRB3      29.92S
SIOUX CITY     SUNNY     79  66  64 E3        29.92F
6HR MIN TEMP:  64; 6HR MAX TEMP:  81;

SPENCER        SUNNY     75  59  57 MISG      29.93F
6HR MIN TEMP:  62; 6HR MAX TEMP:  75;

STORM LAKE       N/A     73  61  64 VRB5G12   29.94S
$$

ABBREVIATIONS USED IN REMARKS
   TC - TEMPERATURE IN CELSIUS
  WCI - WIND CHILL INDEX
   HX - HEAT INDEX
  VSB - VISIBILITY





USA.gov is the U.S. government's official web portal to all federal, state and local government web resources and services.